DECAYED

STARLINK-1795, 46696 (Decayed)

Orbit data source: Space-Track

STARLINK-1795, 46696 was a payload satellite owned by SpaceX/Seattle (US) in LEO that was launched on Sun, 18 Oct 2020 UTC via an FALCON 9 launch vehicle from the Air Force Eastern Test Range (AFETR). Payload-class satellites include a variety of spacecraft equipped with specific instruments for various scientific and technological missions. These include communications satellites like Starlink; space stations such as the ISS; scientific satellites like the Hubble; Earth observation satellites from companies like Planet Labs, Umbra, and HawkEye 360; GPS; miniature CubeSats for education and research; and military/defense satellites.

Not visible in the next 10 days
Identifier
46696, 2020-073AC
Orbit
Decayed
Country
Flag of USUS
Related business
Manufacturer
SpaceX/Seattle
Mission
Decayed Commercial Communications
Bus & Motor
STARLINK, Unknown motor
Mass
260 kg wet, ~248 kg dry
Launch date (UTC)
2020-10-18 (6 years ago)
Launch vehicle
FALCON 9
Launch site
Air Force Eastern Test Range (AFETR)
Object type
Payload
Rocket body
Debris
Shape & HBR
Box + 1 Pan, 10.1 m
Radar Cross Section
13.562 m², Large (>1 m²)

Expand to show TLE details & history
Last TLE update: 1 week ago

TLE from 1 week ago
0 STARLINK-1795
1 46696U 20073AC  26164.82978667  .11717806  12466-4  37616-3 0  9995
2 46696  53.0167  55.8567 0009172 265.5745  94.4255 16.44119597313210
Epoch: 2026-06-13T19:54Z
TLE epoch observation values (Epoch: 2026-06-13T19:54:53.568Z)
Latitude
-0.00001°
Longitude
-145.00577°
Altitude
156.262 km
Speed
7.813 km/s
True Right ascension
03h 43m 25s
True Declination
0° 00' 00"
Sunlit
Object was in daylight at epoch
Visualization orbit readout
Latitude
Unknown
Longitude
Unknown
Altitude
Unknown
Speed
Unknown
Apparent Right ascension
Unknown
Apparent Declination
Unknown
Sunlit
N/A
Visualization observer readout
Local Sidereal Time
20:14:24
Azimuth
Unknown
Elevation
Unknown
Doppler factor
Unknown
Orbital elements
Apogee altitude
161.152 km
Perigee altitude
149.167 km
Semi-major axis
6,533.297 km
Eccentricity
0.00092
Inclination
53.0167°
RAAN
55.8567°
Arg. of periapsis
265.5745°
True anomaly
94.53028°
Mean anomaly
94.4255°
Eccentric anomaly
94.47789°
Mean motion
4.11003 °/min
Orbital period
87.59 mins
BSTAR
0.00037616
Loading maneuver chart data...
Computing Atmospheric mass density...

Documentation

Showing up to 5 results
|